Welcome to the New NWS' Forecast!
Most changes are behind the scenes, but click here for differences you might notice.
Latest weather observations around

Philadelphia, Philadelphia International Airport (KPHL)

Using English Units (Switch to International System of Units)
Date/ Time (EST) Wind (mph) Vis. (mi) Weather Sky Cond. Temp (°F) Rel. Humidity Wind Chill (°F) Heat Index (°F) Pressure Precip. (in)
Air Dwpt 6 hour Altimeter (inHg) Sea level (inHg) 1 hr 3 hr 6 hr
Max Min
Nov 21 13:54 SW 13 10 Mostly Cloudy BKN220 BKN260 58 28     32%     30.04 30.04      
Nov 21 12:54 SSW 15 10 Mostly Cloudy BKN240 57 29     34%     30.08 30.08      
Nov 21 11:54 SSW 17 10 Mostly Cloudy BKN280 56 31     38%     30.1 30.1      
Nov 21 10:54 SW 22 10 Mostly Cloudy and Windy BKN280 55 30     38%     30.12 30.12      
Nov 21 09:54 SW 18 10 Mostly Cloudy BKN280 52 31     44%     30.14 30.14      
Nov 21 08:54 SSW 15 10 Partly Cloudy SCT280 48 32     54% 42   30.15 30.14      
Nov 21 07:54 S 8 10 Partly Cloudy SCT280 42 33     70% 37   30.15 30.15      
Nov 21 06:54 S 5 10 Partly Cloudy SCT280 41 31     67% 38   30.15 30.14      
Nov 21 05:54 SSW 8 10 Mostly Clear FEW250 42 31     64% 37   30.15 30.14      
Nov 21 04:54 SSW 7 10 Mostly Clear FEW250 41 31     67% 36   30.14 30.14      
Nov 21 03:54 SSW 7 10 Partly Cloudy SCT250 40 30     67% 35   30.14 30.14      
Nov 21 02:54 S 5 10 Mostly Cloudy BKN250 41 30     65% 38   30.16 30.16      
Nov 21 01:54 SSW 7 10 Mostly Cloudy BKN250 42 30     62% 38   30.17 30.16      
Nov 21 00:54 SSW 9 10 Partly Cloudy SCT260 42 28     57% 37   30.17 30.16      
Nov 20 23:54 SSW 7 10 Partly Cloudy SCT260 40 28     62% 35   30.17 30.17      
Nov 20 22:54 SSW 8 10 Clear CLR 41 27     57% 36   30.17 30.17      
Nov 20 21:54 SSW 8 10 Clear CLR 41 27     57% 36   30.17 30.17      
Nov 20 20:54 S 8 10 Clear CLR 41 27     57% 36   30.16 30.16      
Nov 20 19:54 SW 7 10 Clear CLR 43 25     49% 39   30.16 30.16      
Nov 20 18:54 SW 7 10 Clear CLR 44 26     49% 40   30.15 30.15      
Nov 20 17:54 SW 10 10 Mostly Clear FEW260 46 24     42% 41   30.15 30.14      
Nov 20 16:54 WSW 16 10 Partly Cloudy FEW080 SCT260 46 23     40% 39   30.14 30.14      
Nov 20 15:54 W 18 10 Mostly Cloudy BKN260 48 22     35% 41   30.13 30.13      
Nov 20 14:54 WSW 18 10 Partly Cloudy SCT260 48 22     35% 41   30.12 30.12      
Nov 20 13:54   10 Partly Cloudy FEW050 SCT260 47 22     37%     30.12 30.11      
Nov 20 12:54   10 Partly Cloudy FEW050 SCT260 46 22     38%     30.12 30.12      
Nov 20 11:54 WNW 16 10 Mostly Clear FEW050 FEW260 45 21     38% 38   30.11 30.11      
Nov 20 10:54 WNW 16 10 Mostly Clear FEW050 44 20     38% 37   30.14 30.14      
Nov 20 09:54 W 16 10 Mostly Clear FEW050 42 19     39% 34   30.14 30.14      
Nov 20 08:54 W 15 10 Mostly Clear FEW055 40 21     46% 32   30.12 30.12      
Nov 20 07:54 W 14 10 Mostly Clear FEW060 38 21     50% 30   30.11 30.11      
Nov 20 06:54 W 11 10 Mostly Clear FEW065 37 21     52% 29   30.08 30.08      
Nov 20 05:54 W 15 10 Mostly Clear FEW065 38 23     55% 29   30.05 30.05      
Nov 20 04:54 W 15 10 Mostly Clear FEW065 39 25     57% 31   30.02 30.02      
Nov 20 03:54   10 Mostly Cloudy BKN065 40 23     50%     29.99 29.99      
Nov 20 02:54 W 14 10 Mostly Clear FEW050 FEW085 40 23     50% 32   29.97 29.97      
Nov 20 01:54 W 17 10 Partly Cloudy SCT050 SCT085 40 25     55% 31   29.95 29.95      
Nov 20 00:54 W 15 10 Mostly Clear FEW085 40 25     55% 32   29.91 29.91      
Nov 19 23:54 W 13 10 Mostly Clear FEW085 40 25     55% 32   29.9 29.89      
Nov 19 22:54 WSW 11 10 Mostly Clear FEW065 41 24     51% 34   29.88 29.87      
Nov 19 21:54 W 14 10 Mostly Clear FEW065 42 24     49% 35   29.87 29.86      
Nov 19 20:54 W 15 10 Mostly Clear FEW065 44 25     47% 37   29.83 29.83      
Nov 19 19:54 W 18 10 Mostly Cloudy SCT040 BKN065 46 27     47% 39   29.81 29.81      
Nov 19 18:54 W 13 10 Mostly Cloudy BKN060 47 25     42% 41   29.79 29.79      
Nov 19 17:54 W 20 10 Mostly Cloudy and Windy BKN060 47 24     40% 40   29.76 29.75      
Nov 19 16:54 W 15 10 Mostly Cloudy BKN055 48 24     39% 42   29.72 29.72      
Nov 19 15:54 WNW 17 10 Mostly Cloudy BKN055 50 26     39% 44   29.68 29.67      
Nov 19 14:54   10 Mostly Cloudy BKN050 51 28     41%     29.64 29.64      
Nov 19 13:54 NW 21 10 Mostly Cloudy and Windy BKN050 52 28     39%     29.62 29.61      
Nov 19 12:54   10 Mostly Cloudy BKN050 53 30     41%     29.61 29.6      
Nov 19 11:54   10 Mostly Cloudy BKN048 53 30     41%     29.6 29.59      
Nov 19 10:54   10 Mostly Cloudy BKN048 53 32     45%     29.58 29.57      
Nov 19 09:54   10 Mostly Cloudy BKN045 BKN090 51 32     48%     29.55 29.54      
Nov 19 08:54   10 Partly Cloudy SCT040 SCT090 SCT160 51 34     52%     29.51 29.5      
Nov 19 07:54   10 Mostly Cloudy SCT040 BKN090 50 34     54%     29.45 29.45      
Nov 19 06:54   10 Mostly Cloudy FEW029 SCT035 BKN090 54 41     61%     29.37 29.37 0   0
Nov 19 06:39   10 Mostly Cloudy SCT029 BKN080 57 47     69%     29.34   0    
Nov 19 05:58   10 Light Rain FEW012 OVC060 58 55     90%     29.29   0    
Nov 19 05:54   8 Light Rain FEW013 SCT026 OVC075 58 55     90%     29.29 29.29 0    
Nov 19 05:52   8 Light Rain FEW013 SCT026 OVC075 57 55     94%     29.29   0    
Nov 19 05:40 WSW 17 6 Rain and Fog/Mist BKN013 OVC026 59 56     90%     29.3   0    
Nov 19 05:06   10 Light Rain BKN013 OVC028 59 56     90%     29.29   0    
Nov 19 04:54 SSW 20 7 Light Rain BKN015 BKN029 OVC065 59 56     90%     29.29 29.28 0    
Nov 19 04:51 SSW 20 7 Light Rain BKN015 BKN029 OVC065 59 55     88%     29.28   0    
Nov 19 04:28 SSW 21 6 Rain and Fog/Mist BKN015 OVC028 59 56     90%     29.3   0    
Nov 19 04:05 SSW 18 10 Light Rain BKN015 BKN031 OVC070 59 55     87%     29.29   0    
Nov 19 03:54 SSW 15 10 Light Rain SCT015 SCT040 OVC070 59 55     87%     29.29 29.28 0 0  
Nov 19 03:27 SSW 20 7 Rain BKN015 OVC039 59 55     87%     29.3   0    
Nov 19 03:23 SSW 20 7 Rain SCT015 OVC039 59 55     87%     29.31   0    
Nov 19 02:54 SSW 16 6 Rain and Fog/Mist FEW013 SCT039 OVC060 59 55     87%     29.34 29.34 0    
Nov 19 02:49   6 Rain and Fog/Mist FEW015 OVC060 59 55     88%     29.35   0    
Nov 19 02:34 SSW 17 8 Light Rain FEW015 OVC065 59 54     83%     29.35   0    
Nov 19 01:54   10 Light Rain SCT065 OVC100 60 53     78%     29.37 29.36 0    
Nov 19 00:54 SSW 20 10 Light Rain BKN080 OVC110 61 51     70%     29.37 29.37 0   0
Nov 18 23:54 SSW 21 10 Cloudy and Windy FEW080 OVC120 61 50     67%     29.4 29.4 0    
Nov 18 22:54 SSW 20 10 Cloudy and Windy FEW050 SCT100 BKN130 OVC200 60 49     67%     29.43 29.42      
Nov 18 21:54 S 15 10 Cloudy FEW100 FEW130 BKN160 OVC200 57 47     69%     29.47 29.47   0  
Nov 18 20:54 S 9 10 Cloudy FEW070 OVC130 55 44     66%     29.51 29.51 0    
Nov 18 19:54 S 8 10 Light Rain FEW038 FEW050 BKN090 OVC130 52 43     71%     29.54 29.54 0    
Nov 18 18:54 S 8 10 Cloudy FEW038 FEW050 BKN090 OVC130 51 43     74%     29.58 29.58 0   0
Nov 18 17:54 S 8 10 Light Rain SCT040 BKN070 OVC090 51 43     74%     29.62 29.62 0    
Nov 18 17:23 S 8 9 Light Rain SCT040 BKN075 OVC090 53 42     66%     29.63   0    
Nov 18 16:54 S 8 10 Light Rain FEW040 SCT070 BKN090 OVC140 53 40     61%     29.63 29.63 0    
Nov 18 15:54 S 8 10 Cloudy FEW040 SCT075 OVC090 54 38     55%     29.65 29.65      
Nov 18 14:54 S 9 10 Cloudy FEW040 BKN080 BKN090 OVC150 53 38     56%     29.68 29.68      
Nov 18 13:54 S 8 10 Cloudy FEW040 BKN085 OVC150 53 38     56%     29.72 29.72      
Jun 10 21:54 SSW 6 10 Mostly Clear FEW070 78 58     50%   78 30.05 30.04      
Jun 10 15:54   10 Mostly Clear FEW065 87 53     31%   85 29.99 29.99      
Jun 10 11:54 SW 9 10 Mostly Clear FEW150 FEW280 82 55     40%   81 30.03 30.03      
Jun 10 08:54 WSW 6 10 Mostly Cloudy FEW060 BKN120 BKN280 73 56     55%   73 30.03 30.03      
Jun 08 08:54 6 10 Clear   64 51     63%     30.01 30.01      
Jun 07 16:54 ENE 5 10 Cloudy OVC047 65 48     54%     30.02 30.01      
Jun 07 09:37 ENE 9 10 Cloudy BKN023 OVC040 57 47     69%     30.01        
Jun 06 06:32 NE 8 2 Rain and Fog/Mist SCT004 BKN012 OVC031 61 59     93%     29.7   0